#timestamp,LO_Frequency,Hit,StdDev 
1510372815.4,286046993.3,N
1510372835.3,286046996.2,N
1510372855.1,286046997.1,N
1510372856.0,286046997.1,N
1510372875.8,286047000.1,N
1510372895.7,286046996.7,N
1510372915.5,286046999.3,N
1510372935.3,286046995.0,N
1510372955.2,286046995.0,N
1510372975.9,286046999.1,N
1510372995.7,286047001.0,N
1510373015.6,286046999.8,N
1510373035.4,286047004.3,N
1510373055.2,286047004.7,N
1510373075.0,286047003.1,N
1510373075.9,286047003.1,N
1510373095.8,286047004.2,N
1510373115.6,286047001.8,N
1510373135.4,286046998.2,N
1510373155.3,286046994.4,N
1510373175.1,286046992.3,N
1510373195.8,286046994.5,N
1510373215.7,286046993.2,N
1510373235.5,286046992.8,N
1510373255.3,286046985.5,Y
1510373275.2,286046991.2,P
1510373295.9,286046987.4,P
1510373315.7,286046985.8,P
1510373335.6,286046988.4,N
1510373355.4,286046984.3,Y
1510373375.2,286046997.3,P
1510373395.1,286046998.3,N
1510373396.0,286046998.3,N
1510373415.8,286046998.4,N
1510373435.6,286046996.0,N
1510373455.5,286046994.4,N
1510373475.3,286046996.4,N
1510373495.1,286046990.9,Y
1510373515.9,286046992.2,P
1510373535.7,286046992.3,P
1510373555.5,286046990.2,P
1510373575.4,286046990.0,Y
1510373595.2,286046996.4,P
1510373615.0,286046996.4,N
1510373615.9,286046996.4,N
1510373635.8,286046996.1,N
1510373655.6,286046992.4,Y
1510373675.4,286046997.5,P
1510373695.3,286046998.9,N
1510373715.1,286046998.9,N
1510373716.0,286046998.9,N
1510373735.8,286046997.8,N
1510373755.7,286046997.0,N
1510373775.5,286046997.6,N
1510373795.3,286046998.0,N
1510373815.2,286046993.7,Y
1510373835.9,286046994.9,P
1510373855.7,286046995.7,N
1510373875.5,286046995.6,P
1510373895.4,286046995.8,Y
1510373915.2,286046998.9,P
1510373935.0,286047000.2,N
1510373936.0,286047000.2,N
1510373955.8,286047002.7,N
1510373975.6,286047006.6,Y
1510373995.5,286047006.7,P
1510374015.3,286047006.6,N
1510374035.1,286047004.6,N
1510374055.8,286047006.3,N
1510374075.7,286047004.9,N
1510374095.5,286047006.5,N
1510374115.3,286047008.4,Y
1510374135.2,286047006.2,P
1510374155.0,286047009.6,P
1510374155.9,286047009.6,P
1510374175.8,286047012.6,Y
1510374195.6,286047007.0,P
1510374215.4,286047004.7,P
1510374235.2,286047007.7,P
1510374255.1,286047006.1,Y
1510374256.0,286047006.1,P
1510374275.8,286046999.7,N
1510374295.7,286047002.8,N
1510374315.5,286047005.4,N
1510374335.3,286047003.0,N
1510374355.1,286047007.0,N
1510374375.9,286047005.3,N
1510374395.7,286047001.4,N
1510374415.5,286047007.2,N
1510374435.4,286047006.4,N
1510374455.2,286047009.1,Y
1510374475.0,286047003.5,P
1510374475.9,286047003.5,P
1510374495.8,286047005.7,P
1510374515.6,286047007.6,Y
1510374535.4,286047002.3,P
1510374555.3,286047001.4,N
1510374575.1,286047003.2,N
1510374595.9,286047006.1,Y
1510374615.7,286047006.0,P
1510374635.5,286047003.4,N
1510374655.3,286047003.3,N
1510374675.2,286047003.7,N
1510374695.0,286047003.4,Y
1510374695.9,286047003.4,P
1510374715.7,286047001.7,P
1510374735.6,286047003.7,P
1510374755.4,286047002.8,Y
1510374775.2,286047001.7,P
1510374795.1,286046999.7,N
1510374796.0,286046999.7,N
1510374815.8,286047002.8,N
1510374835.6,286047000.5,N
1510374855.5,286047004.3,Y
1510374875.3,286047002.2,P
1510374895.1,286046997.2,P
1510374915.9,286046998.3,N
1510374935.7,286046998.1,N
1510374955.5,286046994.9,N
1510374975.4,286046995.0,N
1510374995.2,286046996.4,N
1510375015.0,286046999.6,N
1510375015.9,286046999.6,N
1510375035.8,286046999.4,N
1510375055.6,286046998.8,N
1510375075.4,286046999.6,N
1510375095.3,286046995.4,N
1510375115.1,286046992.3,Y
1510375116.0,286046992.3,P
1510375135.8,286046994.4,N
1510375155.7,286046990.5,P
1510375175.5,286046987.4,Y
1510375195.3,286046989.2,P
1510375215.2,286046986.9,P
1510375235.9,286046988.0,P
1510375255.7,286046985.3,Y
1510375275.6,286046997.3,P
1510375295.4,286046996.2,N
1510375315.2,286046993.8,N
1510375335.1,286046995.3,N
1510375336.0,286046995.3,N
1510375355.8,286046995.6,N
1510375375.6,286046997.6,N
1510375395.5,286046995.3,N
1510375415.3,286046997.3,N
1510375435.1,286046995.0,N
1510375455.9,286046996.9,N
1510375475.7,286046997.5,N
1510375495.5,286046997.2,N
1510375515.3,286046996.5,N
1510375535.2,286046999.2,N
1510375555.0,286046997.0,N
1510375555.9,286046997.0,N
1510375575.7,286046993.3,Y
1510375595.6,286047002.5,P
1510375615.4,286047003.1,N
1510375635.2,286047003.5,N
1510375655.1,286047004.4,N
1510375656.0,286047004.4,N
1510375675.8,286047001.3,N
1510375695.6,286047005.4,N
1510375715.5,286047002.9,N
1510375735.3,286047003.4,N
1510375755.1,286047005.3,N
1510375775.9,286047005.4,N
1510375795.7,286047006.8,N
1510375815.5,286047009.0,Y
1510375835.4,286047003.6,P
1510375855.2,286047005.2,P
1510375875.0,286047001.3,N
1510375875.9,286047001.3,N
1510375895.8,286047006.9,Y
1510375915.6,286047005.9,P
1510375935.4,286047005.7,P
1510375955.3,286047006.6,P
1510375975.1,286047007.0,Y
1510375976.0,286047007.0,P
1510375995.8,286047004.3,P
1510376015.7,286047002.8,N
1510376035.5,286046996.7,N
1510376055.3,286047000.0,N
1510376075.2,286046996.5,N
1510376095.9,286046993.4,N
1510376115.7,286046995.9,N
1510376135.5,286046996.0,N
1510376155.4,286046995.4,N
1510376175.2,286046997.5,N
1510376195.0,286046992.2,N
1510376195.9,286046992.2,N
1510376215.8,286046999.5,N
1510376235.6,286046999.8,N
1510376255.4,286046999.0,N
1510376275.3,286046998.8,N
1510376295.1,286047001.9,N
1510376296.0,286047001.9,N
1510376315.8,286047001.6,N
1510376335.7,286047001.9,N
1510376355.5,286047005.4,N
1510376375.3,286047005.8,N
1510376395.2,286047006.0,N
